Time,TemperatureF,DewpointF,PressureIn,WindDirection,WindDirectionDegrees,WindSpeedMPH,WindSpeedGustMPH,Humidity,HourlyPrecipIn,Conditions,Clouds,dailyrainin,SoftwareType,DateUTC
2013-07-21 00:02:00,77.0,66.0,-100.00,ESE,115,4.0,5.0,67,0.00,,,-99.99,,2013-07-21 05:02:00,
2013-07-21 00:11:00,77.0,66.0,-100.00,SE,145,3.0,6.0,69,0.00,,,-99.99,,2013-07-21 05:11:00,
2013-07-21 00:32:00,76.0,67.0,-100.00,SSE,150,2.0,5.0,73,0.00,,,-99.99,,2013-07-21 05:32:00,
2013-07-21 00:42:00,75.0,68.0,-100.00,SSE,150,2.0,3.0,78,0.00,,,-99.99,,2013-07-21 05:42:00,
2013-07-21 00:52:00,75.0,68.0,-100.00,SSE,150,2.0,3.0,78,0.00,,,-99.99,,2013-07-21 05:52:00,
2013-07-21 01:11:00,75.0,69.0,-100.00,East,90,1.0,2.0,80,0.00,,,-99.99,,2013-07-21 06:11:00,
2013-07-21 01:32:00,74.0,69.0,-100.00,SE,140,0.0,1.0,81,0.00,,,-99.99,,2013-07-21 06:32:00,
2013-07-21 01:42:00,75.0,69.0,-100.00,SE,140,0.0,1.0,81,0.00,,,-99.99,,2013-07-21 06:42:00,
2013-07-21 01:53:00,74.0,70.0,-100.00,SE,140,0.0,1.0,85,0.00,,,-99.99,,2013-07-21 06:53:00,
2013-07-21 02:01:00,74.0,70.0,-100.00,SE,140,0.0,0.0,85,0.00,,,-99.99,,2013-07-21 07:01:00,
2013-07-21 02:11:00,74.0,71.0,-100.00,SE,140,1.0,1.0,89,0.00,,,-99.99,,2013-07-21 07:11:00,
2013-07-21 02:22:00,73.0,70.0,-100.00,WSW,250,1.0,2.0,90,0.00,,,-99.99,,2013-07-21 07:22:00,
2013-07-21 02:32:00,73.0,70.0,-100.00,WSW,250,1.0,2.0,90,0.00,,,-99.99,,2013-07-21 07:32:00,
2013-07-21 02:43:00,72.0,70.0,-100.00,NW,305,2.0,3.0,91,0.00,,,-99.99,,2013-07-21 07:43:00,
2013-07-21 03:01:00,72.0,70.0,-100.00,WSW,250,1.0,1.0,92,0.00,,,-99.99,,2013-07-21 08:01:00,
2013-07-21 03:11:00,72.0,69.0,-100.00,SW,215,2.0,2.0,92,0.00,,,-99.99,,2013-07-21 08:11:00,
2013-07-21 03:22:00,71.0,69.0,-100.00,SW,215,1.0,2.0,92,0.00,,,-99.99,,2013-07-21 08:22:00,
2013-07-21 03:33:00,71.0,69.0,-100.00,SW,215,1.0,2.0,92,0.00,,,-99.99,,2013-07-21 08:33:00,
2013-07-21 03:43:00,71.0,69.0,-100.00,East,90,2.0,3.0,92,0.00,,,-99.99,,2013-07-21 08:43:00,
2013-07-21 04:32:00,71.0,68.0,-100.00,South,175,0.0,1.0,92,0.00,,,-99.99,,2013-07-21 09:32:00,
2013-07-21 04:42:00,71.0,68.0,-100.00,SSW,200,1.0,4.0,92,0.00,,,-99.99,,2013-07-21 09:42:00,
2013-07-21 05:02:00,70.0,68.0,-100.00,SSE,165,1.0,2.0,92,0.00,,,-99.99,,2013-07-21 10:02:00,
2013-07-21 05:11:00,70.0,68.0,-100.00,SSE,165,1.0,2.0,93,0.00,,,-99.99,,2013-07-21 10:11:00,
2013-07-21 05:22:00,70.0,68.0,-100.00,SSE,165,0.0,1.0,93,0.00,,,-99.99,,2013-07-21 10:22:00,
2013-07-21 05:32:00,70.0,68.0,-100.00,SSE,165,0.0,1.0,93,0.00,,,-99.99,,2013-07-21 10:32:00,
2013-07-21 05:43:00,69.0,68.0,-100.00,SSE,150,3.0,4.0,94,0.00,,,-99.99,,2013-07-21 10:43:00,
2013-07-21 05:52:00,70.0,68.0,-100.00,SSE,150,2.0,3.0,94,0.00,,,-99.99,,2013-07-21 10:52:00,
2013-07-21 06:02:00,69.0,68.0,-100.00,SE,135,2.0,4.0,94,0.00,,,-99.99,,2013-07-21 11:02:00,
2013-07-21 06:12:00,70.0,68.0,-100.00,SE,125,2.0,5.0,94,0.00,,,-99.99,,2013-07-21 11:12:00,
2013-07-21 06:33:00,70.0,68.0,-100.00,ESE,110,3.0,4.0,94,0.00,,,-99.99,,2013-07-21 11:33:00,
2013-07-21 06:43:00,70.0,68.0,-100.00,ESE,115,2.0,4.0,94,0.00,,,-99.99,,2013-07-21 11:43:00,
2013-07-21 07:01:00,70.0,68.0,-100.00,ENE,65,1.0,4.0,94,0.00,,,-99.99,,2013-07-21 12:01:00,
2013-07-21 07:11:00,70.0,68.0,-100.00,East,95,5.0,6.0,94,0.00,,,-99.99,,2013-07-21 12:11:00,
2013-07-21 07:22:00,70.0,68.0,-100.00,ESE,105,3.0,4.0,93,0.00,,,-99.99,,2013-07-21 12:22:00,
2013-07-21 07:32:00,71.0,68.0,-100.00,SE,145,3.0,4.0,91,0.00,,,-99.99,,2013-07-21 12:32:00,
2013-07-21 07:43:00,72.0,68.0,-100.00,SE,145,4.0,6.0,88,0.00,,,-99.99,,2013-07-21 12:43:00,
2013-07-21 07:53:00,73.0,68.0,-100.00,SE,130,4.0,6.0,84,0.00,,,-99.99,,2013-07-21 12:53:00,
2013-07-21 08:12:00,75.0,68.0,-100.00,SE,125,3.0,6.0,77,0.00,,,-99.99,,2013-07-21 13:12:00,
2013-07-21 08:22:00,77.0,66.0,-100.00,SE,130,3.0,5.0,69,0.00,,,-99.99,,2013-07-21 13:22:00,
2013-07-21 08:32:00,78.0,66.0,-100.00,SE,145,4.0,6.0,68,0.00,,,-99.99,,2013-07-21 13:32:00,
2013-07-21 08:42:00,78.0,66.0,-100.00,SE,125,6.0,7.0,66,0.00,,,-99.99,,2013-07-21 13:42:00,
2013-07-21 08:53:00,77.0,66.0,-100.00,SE,145,4.0,6.0,68,0.00,,,-99.99,,2013-07-21 13:53:00,
2013-07-21 09:12:00,78.0,67.0,-100.00,ESE,115,3.0,4.0,70,0.00,,,-99.99,,2013-07-21 14:12:00,
2013-07-21 09:32:00,78.0,67.0,-100.00,SSE,160,2.0,5.0,69,0.00,,,-99.99,,2013-07-21 14:32:00,
2013-07-21 09:43:00,78.0,67.0,-100.00,ESE,120,4.0,7.0,67,0.00,,,-99.99,,2013-07-21 14:43:00,
2013-07-21 09:53:00,78.0,67.0,-100.00,ESE,120,4.0,7.0,67,0.00,,,-99.99,,2013-07-21 14:53:00,
2013-07-21 10:02:00,79.0,67.0,-100.00,SE,140,4.0,6.0,67,0.00,,,-99.99,,2013-07-21 15:02:00,
2013-07-21 10:11:00,80.0,68.0,-100.00,SE,125,4.0,7.0,66,0.00,,,-99.99,,2013-07-21 15:11:00,
2013-07-21 10:22:00,80.0,68.0,-100.00,ESE,120,4.0,8.0,66,0.00,,,-99.99,,2013-07-21 15:22:00,
2013-07-21 10:32:00,81.0,68.0,-100.00,ESE,105,6.0,8.0,64,0.00,,,-99.99,,2013-07-21 15:32:00,
2013-07-21 10:43:00,82.0,67.0,-100.00,SE,145,6.0,10.0,60,0.00,,,-99.99,,2013-07-21 15:43:00,
2013-07-21 11:22:00,82.0,68.0,-100.00,ESE,105,2.0,11.0,62,0.00,,,-99.99,,2013-07-21 16:22:00,
2013-07-21 11:32:00,84.0,67.0,-100.00,SE,125,2.0,7.0,57,0.00,,,-99.99,,2013-07-21 16:32:00,
2013-07-21 11:43:00,84.0,67.0,-100.00,ESE,110,5.0,6.0,56,0.00,,,-99.99,,2013-07-21 16:43:00,
2013-07-21 11:52:00,86.0,67.0,-100.00,East,100,4.0,10.0,54,0.00,,,-99.99,,2013-07-21 16:52:00,
2013-07-21 12:02:00,85.0,66.0,-100.00,East,95,7.0,11.0,53,0.00,,,-99.99,,2013-07-21 17:02:00,
2013-07-21 12:11:00,87.0,67.0,-100.00,SE,130,6.0,12.0,50,0.00,,,-99.99,,2013-07-21 17:11:00,
2013-07-21 12:22:00,86.0,67.0,-100.00,SE,135,8.0,12.0,52,0.00,,,-99.99,,2013-07-21 17:22:00,
2013-07-21 12:33:00,86.0,67.0,-100.00,SE,135,8.0,12.0,52,0.00,,,-99.99,,2013-07-21 17:33:00,
2013-07-21 12:43:00,86.0,68.0,-100.00,SE,130,5.0,12.0,53,0.00,,,-99.99,,2013-07-21 17:43:00,
2013-07-21 12:53:00,85.0,67.0,-100.00,East,100,7.0,11.0,55,0.00,,,-99.99,,2013-07-21 17:53:00,
2013-07-21 13:32:00,82.0,69.0,-100.00,East,85,4.0,7.0,64,0.00,,,-99.99,,2013-07-21 18:32:00,
2013-07-21 13:43:00,82.0,69.0,-100.00,East,95,6.0,7.0,64,0.00,,,-99.99,,2013-07-21 18:43:00,
2013-07-21 13:52:00,81.0,71.0,-100.00,ESE,105,8.0,11.0,71,0.65,,,-99.99,,2013-07-21 18:52:00,
2013-07-21 15:12:00,72.0,64.0,-100.00,ENE,75,7.0,17.0,78,0.01,,,-99.99,,2013-07-21 20:12:00,
2013-07-21 15:32:00,69.0,66.0,-100.00,WNW,295,10.0,12.0,90,0.30,,,-99.99,,2013-07-21 20:32:00,
2013-07-21 15:42:00,69.0,67.0,-100.00,WNW,300,16.0,19.0,92,0.14,,,-99.99,,2013-07-21 20:42:00,
2013-07-21 16:11:00,68.0,66.0,-100.00,East,95,7.0,14.0,95,3.73,,,-99.99,,2013-07-21 21:11:00,
2013-07-21 16:22:00,68.0,66.0,-100.00,East,95,7.0,14.0,95,3.73,,,-99.99,,2013-07-21 21:22:00,
2013-07-21 16:32:00,68.0,67.0,-100.00,NNW,330,4.0,10.0,95,0.01,,,-99.99,,2013-07-21 21:32:00,
2013-07-21 16:43:00,68.0,67.0,-100.00,NE,35,2.0,6.0,95,0.06,,,-99.99,,2013-07-21 21:43:00,
2013-07-21 16:52:00,69.0,67.0,-100.00,SSE,155,6.0,9.0,95,0.06,,,-99.99,,2013-07-21 21:52:00,
2013-07-21 17:01:00,69.0,67.0,-100.00,ESE,110,10.0,14.0,95,0.16,,,-99.99,,2013-07-21 22:01:00,
2013-07-21 17:11:00,69.0,68.0,-100.00,ESE,115,12.0,19.0,95,0.00,,,-99.99,,2013-07-21 22:11:00,
2013-07-21 17:32:00,68.0,67.0,-100.00,ESE,110,18.0,27.0,95,0.00,,,-99.99,,2013-07-21 22:32:00,
2013-07-21 17:43:00,68.0,67.0,-100.00,SE,135,6.0,16.0,95,0.00,,,-99.99,,2013-07-21 22:43:00,
2013-07-21 17:52:00,68.0,67.0,-100.00,South,185,6.0,10.0,95,0.00,,,-99.99,,2013-07-21 22:52:00,
2013-07-21 18:22:00,71.0,66.0,-100.00,SW,235,3.0,9.0,85,0.00,,,-99.99,,2013-07-21 23:22:00,
2013-07-21 18:32:00,71.0,65.0,-100.00,West,275,3.0,7.0,80,0.00,,,-99.99,,2013-07-21 23:32:00,
2013-07-21 18:42:00,72.0,66.0,-100.00,WSW,245,0.0,3.0,79,0.00,,,-99.99,,2013-07-21 23:42:00,
2013-07-21 18:52:00,73.0,65.0,-100.00,South,175,0.0,2.0,76,0.00,,,-99.99,,2013-07-21 23:52:00,
2013-07-21 19:01:00,74.0,65.0,-100.00,SSW,195,2.0,4.0,73,0.00,,,-99.99,,2013-07-22 00:01:00,
2013-07-21 19:32:00,77.0,64.0,-100.00,East,100,2.0,5.0,65,0.00,,,-99.99,,2013-07-22 00:32:00,
2013-07-21 19:42:00,76.0,65.0,-100.00,SE,145,2.0,7.0,67,0.00,,,-99.99,,2013-07-22 00:42:00,
2013-07-21 20:02:00,76.0,64.0,-100.00,SE,135,5.0,9.0,67,0.00,,,-99.99,,2013-07-22 01:02:00,
2013-07-21 20:11:00,74.0,64.0,-100.00,SSE,165,4.0,9.0,71,0.00,,,-99.99,,2013-07-22 01:11:00,
2013-07-21 20:32:00,73.0,65.0,-100.00,SE,145,2.0,6.0,75,0.00,,,-99.99,,2013-07-22 01:32:00,
2013-07-21 20:42:00,72.0,66.0,-100.00,SSE,160,2.0,6.0,81,0.00,,,-99.99,,2013-07-22 01:42:00,
2013-07-21 21:02:00,71.0,66.0,-100.00,SE,140,2.0,4.0,83,0.00,,,-99.99,,2013-07-22 02:02:00,
2013-07-21 21:11:00,71.0,66.0,-100.00,SE,140,2.0,4.0,85,0.00,,,-99.99,,2013-07-22 02:11:00,
2013-07-21 21:22:00,71.0,67.0,-100.00,SE,135,2.0,4.0,87,0.00,,,-99.99,,2013-07-22 02:22:00,
2013-07-21 21:32:00,71.0,67.0,-100.00,SE,135,1.0,4.0,88,0.00,,,-99.99,,2013-07-22 02:32:00,
2013-07-21 21:43:00,71.0,67.0,-100.00,ESE,120,1.0,2.0,89,0.00,,,-99.99,,2013-07-22 02:43:00,
2013-07-21 22:33:00,70.0,68.0,-100.00,ESE,120,4.0,6.0,91,0.00,,,-99.99,,2013-07-22 03:33:00,
2013-07-21 22:43:00,70.0,68.0,-100.00,SE,140,6.0,7.0,91,0.00,,,-99.99,,2013-07-22 03:43:00,
2013-07-21 23:12:00,70.0,67.0,-100.00,SE,145,4.0,7.0,91,0.00,,,-99.99,,2013-07-22 04:12:00,
2013-07-21 23:33:00,70.0,67.0,-100.00,ESE,120,2.0,6.0,91,0.00,,,-99.99,,2013-07-22 04:33:00,
2013-07-21 23:43:00,69.0,67.0,-100.00,South,170,1.0,2.0,92,0.00,,,-99.99,,2013-07-22 04:43:00,